Regional Weather Roundup
Issued by NWS

Home | Current Version | Previous Version | Graphics & Text | Print | Product List | Glossary On
Versions: 1 2 3 4 5 6 7 8 9 10 11 12 13 14 15 16 17 18 19 20 21 22 23 24 25 26 27 28 29 30 31 32 33 34 35 36 37 38 39 40 41 42 43 44 45 46 47 48 49 50
000
ASUS43 KDTX 312010
RWRMI
MICHIGAN HOURLY REGIONAL WEATHER ROUNDUP
NATIONAL WEATHER SERVICE DETROIT/PONTIAC MI
400 PM EDT FRI JUL 31 2015

NOTE: "FAIR" INDICATES FEW OR NO CLOUDS BELOW 12,000 FEET WITH NO
SIGNIFICANT WEATHER AND/OR OBSTRUCTION TO VISIBILITY.

MIZ047>049-052>055-059>063-066>070-074>076-081>083-312100-
SOUTHEAST LOWER MICHIGAN

CITY           SKY/WX    TMP DP  RH WIND       PRES   REMARKS
ADRIAN         MOSUNNY   84  60  44 W15G23    29.89F
ALMA           MOSUNNY   82  52  35 W18G29    29.85S
ANN ARBOR      SUNNY     85  60  42 W18G28    29.87F
BAD AXE        MOSUNNY   82  55  39 NW17G24   29.81F
CARO           PTSUNNY   81  58  45 W10       29.81F
DETROIT CITY   MOSUNNY   85  55  35 W15G30    29.83F
DETROIT        MOSUNNY   86  57  37 W17G26    29.85F
FLINT          SUNNY     87  52  29 W26       29.84F
GROSSE ILE     PTSUNNY   86  57  37 W12G21    29.85S
HILLSDALE      SUNNY     85  53  34 W17G24    29.92F
HOWELL         MOSUNNY   85  49  28 W16G25    29.87S

CITY           SKY/WX    TMP DP  RH WIND       PRES   REMARKS
JACKSON        SUNNY     82  54  37 NW20G26   29.89F
LAMBERTVILLE   MOSUNNY   86  57  37 W15       29.88F
LANSING        MOSUNNY   85  51  31 W20       29.88S
LAPEER         FAIR      84  53  34 W12G22    29.83F
MASON          SUNNY     82  51  33 W14G25    29.88F
MONROE         PTSUNNY   84  60  43 W14G22    29.86F
MT. CLEMENS    PTSUNNY   78  63  59 W9        29.82F
PONTIAC        MOSUNNY   84  57  39 W18G26    29.85F
PORT HOPE        N/A     80  56  43 NW9G20    29.79S
PORT HURON     MOSUNNY   81  61  50 W6        29.83F
TRI CITIES     MOSUNNY   86  54  33 W20G31    29.82F
MIDLAND        PTSUNNY   84  51  31 W12G21    29.81S
TROY           CLOUDY    81  61  49 NW12G17   29.86F
SAGINAW HB     MOSUNNY   86  54  32 W20G26    29.81F
$$
MIZ043>046-050>051-056>058-064>065-071>073-077>080-312100-
SOUTHWEST LOWER MICHIGAN

CITY           SKY/WX    TMP DP  RH WIND       PRES   REMARKS
BATTLE CREEK   SUNNY     86  52  30 W23G37    29.92F
BENTON HARBOR  SUNNY     83  59  44 W15       29.94F
BIG RAPIDS     PTSUNNY   79  49  34 NW17G24   29.87S
COLDWATER      MOSUNNY   83  50  31 W15G25    29.93S
FREMONT        PTSUNNY   79  50  36 NW15G26   29.88S
HOLLAND        SUNNY     81  56  42 NW14G25   29.93S
GRAND RAPIDS   MOSUNNY   82  51  34 W20G36    29.90S
IONIA          FAIR      83  50  31 W21G31    29.87S
KALAMAZOO      MOSUNNY   85  54  34 W15G25    29.92F
LUDINGTON      SUNNY     79  58  48 NW9G16    29.89F
MARSHALL       MOSUNNY   85  52  32 W14G23    29.90F
MOUNT PLEASANT PTSUNNY   84  51  31 W13G18    29.83S
MUSKEGON       MOSUNNY   81  54  39 W18G25    29.91S
SOUTH HAVEN    SUNNY     80  62  53 W13       29.93F
$$
MIZ016>042-312100-
NORTHERN LOWER MICHIGAN

CITY           SKY/WX    TMP DP  RH WIND       PRES   REMARKS
ALPENA         PTSUNNY   82  52  35 W13G20    29.78S
BEAVER ISLAND  LGT RAIN  73  57  58 W9        29.83S
BELLAIRE       SUNNY     77  55  45 W7        29.83S
CADILLAC       MOSUNNY   78  50  36 W20G26    29.87S
CHARLEVOIX     LGT RAIN  65  61  86 SW5       29.87R
FRANKFORT      CLOUDY    75  61  62 W8        29.86F
GAYLORD        MOSUNNY   78  50  37 W16G24    29.84S
GRAYLING       SUNNY     80  50  36 W14G23    29.84F
HARBOR SPRINGS MOSUNNY   72  61  70 W9G18     29.83R
HOUGHTON LAKE  MOSUNNY   78  51  38 NW17G23   29.84S
MANISTEE       SUNNY     77  55  47 W13       29.88F
OSCODA         PTSUNNY   78  58  48 W12       29.78F
PELLSTON       PTSUNNY   78  52  40 W16G24    29.81S
ROGERS CITY    CLOUDY    75  58  54 NW9       29.79S
TRAVERSE CITY  MOSUNNY   82  52  35 NW15G25   29.82F
$$
MIZ007>008-015-312100-
EASTERN UPPER MICHIGAN

CITY           SKY/WX    TMP DP  RH WIND       PRES   REMARKS
KINROSS        SUNNY     72  57  60 NW14G21   29.79S
MACKINAC ISLAN PTSUNNY   77  51  39 W20G29    29.78S
NEWBERRY       MOSUNNY   75  51  43 W16G23    29.80S
MUNISING         N/A     71  58  63 N14G21    29.84S
$$
MIZ004>006-011>014-085-312100-
CENTRAL UPPER MICHIGAN

CITY           SKY/WX    TMP DP  RH WIND       PRES   REMARKS
MANISTIQUE     LGT RAIN  64  59  82 NW9G17    29.83R
ESCANABA       CLOUDY    79  50  36 NW16G25   29.83R
MENOMINEE      PTSUNNY   79  52  38 NW7       29.85S
SAWYER-GWINN   PTSUNNY   73  46  38 NW20G25   29.86R
$$
MIZ001>003-009>011-084-312100-
WESTERN UPPER MICHIGAN

CITY           SKY/WX    TMP DP  RH WIND       PRES   REMARKS
IRON MOUNTAIN  PTSUNNY   78  49  35 NW16G30   29.87S
HOUGHTON       SUNNY     71  52  50 W18G25    29.86S
COPPER HARBOR    N/A     71  54  54 N16G28    29.83S
IRONWOOD       SUNNY     73  54  49 W18       29.90F
$$

ABBREVIATIONS USED IN REMARKS
   TC - TEMPERATURE IN CELSIUS
  WCI - WIND CHILL INDEX
   HX - HEAT INDEX
  VSB - VISIBILITY



USA.gov is the U.S. government's official web portal to all federal, state and local government web resources and services.